Flag for Indonesia Weather past 2 weeks in Medan, North Sumatra, Indonesia

Now
90 °F

Scattered clouds.


Feels Like: 100 °F
Forecast: 78 / 90 °F
Wind: 8 mph from Southeast

Location: Medan / Polonia

Current Time: Jul 29, 2014 at 12:43:56 PM

Latest Report: Jul 29, 2014 at 12:00 PM


Visibility: 4 mi

Pressure: 29.80 "Hg

Humidity: 63%

Dew point: 75 °F

Location of MedanLocation

Historic Weather in Medan — Graph

°F

Medan temperature yesterday

Maximum temperature yesterday: 90 °F (at 2:00 PM)
Minimum temperature yesterday: 75 °F (at 12:00 AM)
Average temperature yesterday: 82 °F

Past Weeks' High & Low Weather Summary

 TemperatureHumidityPressure
High93 °F (Jul 18, 12:00 PM)100% (Jul 15, 6:30 AM)29.89 "Hg (Jul 15, 6:30 AM)
Low73 °F (Jul 19, 5:30 AM)36% (Jul 19, 12:30 PM)29.68 "Hg (Jul 14, 4:00 PM)
Average83 °F77%29.79 "Hg
* Reported Jul 14 11:00 AM — Jul 29 11:30 AM, Medan, Weather by CustomWeather, © 2014

Note: Actual official high and low records may vary slightly from our data, if they occured in-between our weather recording intervals... More about our weather records

Advertising

Medan weather history for previous 24 hours

 ConditionsComfort  
Time TempWeatherWind HumidityBarometerVisibility
11:30 AM
Jul 29
88 °FScattered clouds.6 mph66%29.80 "Hg4 mi
11:00 AM88 °FPassing clouds.6 mph62%29.83 "Hg4 mi
10:30 AM88 °FPassing clouds.5 mph59%29.83 "Hg4 mi
10:00 AM88 °FPassing clouds.6 mph66%29.83 "Hg4 mi
9:30 AM86 °FPassing clouds.5 mph66%29.83 "Hg4 mi
9:00 AM84 °FPassing clouds.5 mph74%29.83 "Hg4 mi
8:30 AM84 °FPassing clouds.6 mph74%29.80 "Hg4 mi
8:00 AM81 °FHaze.3 mph84%29.80 "Hg3 mi
7:30 AM77 °FHaze.3 mph94%29.80 "Hg3 mi
7:00 AM77 °FHaze.5 mph94%29.80 "Hg3 mi
6:30 AM77 °FHaze.2 mph94%29.77 "Hg3 mi
6:00 AM75 °FHaze.2 mph100%29.77 "Hg3 mi
5:30 AM77 °FHaze.No wind94%29.77 "Hg3 mi
5:00 AM77 °FHaze.No wind94%29.77 "Hg3 mi
4:00 AM77 °FHaze.No wind94%29.77 "Hg3 mi
3:00 AM77 °FHaze.No wind94%29.77 "Hg3 mi
12:30 AM79 °FPassing clouds.5 mph89%29.83 "Hg3 mi
12:00 AM79 °FPassing clouds.9 mph84%29.83 "Hg3 mi
11:30 PM
Jul 28
79 °FPassing clouds.8 mph89%29.83 "Hg3 mi
11:00 PM81 °FPassing clouds.5 mph89%29.86 "Hg3 mi
10:30 PM81 °FPassing clouds.3 mph84%29.83 "Hg3 mi
10:00 PM82 °FPassing clouds.8 mph79%29.83 "Hg3 mi
9:30 PM82 °FPassing clouds.7 mph84%29.83 "Hg3 mi
9:00 PM84 °FPassing clouds.3 mph79%29.80 "Hg3 mi
8:30 PM84 °FPassing clouds.2 mph79%29.80 "Hg3 mi
8:00 PM86 °FPassing clouds.3 mph70%29.77 "Hg3 mi
7:30 PM86 °FPassing clouds.2 mph66%29.74 "Hg3 mi
7:00 PM86 °FPassing clouds.3 mph66%29.74 "Hg3 mi
6:30 PM86 °FPassing clouds.6 mph66%29.74 "Hg4 mi
6:00 PM86 °FPassing clouds.6 mph70%29.74 "Hg4 mi
5:30 PM88 °FPassing clouds.8 mph66%29.71 "Hg4 mi
5:00 PM88 °FPassing clouds.8 mph66%29.71 "Hg4 mi
4:30 PM88 °FPassing clouds.8 mph66%29.71 "Hg4 mi
4:00 PM90 °FPassing clouds.10 mph55%29.71 "Hg4 mi
3:30 PM90 °FPassing clouds.9 mph59%29.71 "Hg4 mi
3:00 PM90 °FPassing clouds.9 mph59%29.74 "Hg4 mi
2:30 PM90 °FPassing clouds.7 mph63%29.74 "Hg4 mi
2:00 PM90 °FPassing clouds.8 mph67%29.74 "Hg4 mi
1:30 PM88 °FScattered clouds.8 mph66%29.77 "Hg4 mi
1:00 PM88 °FScattered clouds.9 mph66%29.77 "Hg4 mi
12:30 PM88 °FScattered clouds.12 mph66%29.80 "Hg4 mi
12:00 PM88 °FScattered clouds.9 mph70%29.80 "Hg4 mi
Weather by CustomWeather, © 2014

See weather overviewHow to use our weather pages